Probability
0 16 61 58 61 65 61 61 58 61 61 55 55 52 58 58 61 58 52 45 42 45 42 39 45 48 48 45 42 35 29 32 26 16 23 29 32 26 23 13 13 13 16
3 23 55 61 61 65 61 61 58 58 58 52 52 52 48 48 52 52 52 48 42 39 39 35 35 42 42 45 39 32 35 19 16 13 6 13 23 16 16 19 19 13 13
16 29 45 58 55 61 58 58 55 55 55 55 48 52 45 45 48 45 45 45 42 42 42 39 35 42 32 32 32 29 23 16 3 3 0 0 6 19 16 19 23 19 19
26 35 39 52 48 48 52 52 52 52 52 52 42 48 45 42 42 45 45 48 52 45 42 39 32 39 35 29 29 26 19 3 0 0 0 0 0 16 16 16 10 16 16
26 35 39 45 48 48 45 45 52 52 52 55 52 45 42 42 42 45 45 45 48 52 48 39 35 45 29 26 19 19 13 0 0 0 0 0 0 10 16 19 10 10 13
26 35 45 45 45 48 45 45 48 48 48 48 45 42 42 42 42 42 45 45 42 39 42 32 32 32 26 19 19 13 6 0 0 0 0 0 0 13 19 16 16 16 13
26 32 42 48 48 45 48 45 45 45 42 45 45 42 39 39 39 42 42 42 32 32 29 26 26 26 26 19 16 10 0 0 0 0 0 0 3 16 19 16 13 13 6
29 35 39 48 48 48 45 45 45 45 42 42 45 45 39 35 35 39 39 35 39 29 26 19 23 23 23 23 16 6 0 0 0 0 0 0 13 16 13 6 10 10 6
26 35 32 35 39 45 42 42 42 45 48 45 39 42 35 35 35 35 35 32 32 29 19 19 19 19 19 23 10 3 0 0 0 0 0 0 6 10 10 10 3 6 6
23 29 23 29 29 32 35 35 32 32 35 39 32 23 23 26 29 32 32 29 32 26 19 19 19 16 16 10 3 0 0 0 0 0 0 0 13 6 10 6 6 3 3
29 26 23 19 16 16 19 26 29 26 26 26 23 19 13 16 19 19 19 16 16 13 13 10 6 6 6 3 0 0 0 0 0 0 0 0 3 3 0 3 3 0 3
19 26 26 19 13 13 19 16 13 10 10 6 10 10 10 6 10 10 3 6 10 6 6 6 3 3 3 0 0 0 0 0 0 0 0 0 0 0 0 0 0 0 0
19 16 19 13 10 10 10 10 6 10 6 6 3 6 6 6 6 0 0 0 0 0 0 0 0 0 0 0 0 0 0 0 0 0 0 0 0 0 0 0 0 0 0
13 13 13 10 6 10 10 6 0 0 6 6 6 3 3 6 3 0 0 0 0 0 0 0 0 0 0 0 0 0 0 0 0 0 0 0 0 0 0 0 0 0 0
13 10 10 10 10 6 6 3 3 0 0 6 6 6 3 3 3 0 0 0 0 0 0 0 0 0 0 0 0 0 0 0 0 0 0 0 0 0 0 0 0 0 0
10 6 10 10 10 10 6 3 3 3 0 0 6 6 3 3 3 0 0 0 0 0 0 0 0 0 0 0 0 0 0 0 0 0 0 0 0 0 0 0 0 3 0
3 6 10 10 10 10 6 3 3 3 3 3 3 6 3 0 0 0 0 0 0 0 0 0 0 0 0 0 0 0 0 0 0 0 0 0 0 0 0 0 3 3 3
3 3 3 10 10 10 3 3 3 3 3 3 3 3 3 0 0 0 0 0 0 0 0 0 0 0 0 0 0 0 0 0 0 0 0 0 0 0 0 0 0 3 3
3 3 3 3 3 10 6 3 3 3 3 3 3 0 0 0 0 0 0 0 0 0 0 0 0 0 0 0 0 0 0 0 0 0 0 0 0 0 0 0 0 0 0
3 3 3 3 3 6 6 3 3 3 3 3 3 3 0 0 0 0 0 0 0 0 0 0 0 0 0 0 0 0 0 0 0 0 0 0 0 0 0 0 0 0 0
3 3 3 3 3 3 3 3 0 0 3 3 3 3 0 0 0 0 0 0 0 0 0 0 0 0 0 0 0 0 0 0 0 0 0 0 0 0 0 0 0 0 0
3 3 3 3 3 3 3 3 3 0 0 0 0 0 0 0 0 0 0 0 0 0 0 0 0 0 0 0 0 0 0 0 0 0 0 0 0 0 0 0 0 0 0
6 6 3 3 3 3 3 3 3 0 0 0 0 0 0 0 0 0 0 0 0 0 0 0 0 0 0 0 0 0 0 0 0 0 0 0 0 0 0 0 0 0 0
3 3 3 3 3 3 3 3 3 0 0 0 0 0 0 0 0 0 0 0 0 0 0 0 0 0 0 0 0 0 0 0 0 0 0 0 0 0 0 0 0 0 0
6 3 3 3 3 3 3 3 3 0 0 0 0 0 0 0 0 0 0 0 0 0 0 0 0 0 0 0 0 0 0 0 0 0 0 0 0 0 0 0 0 0 0
0 0 3 3 3 3 3 3 3 0 0 0 0 0 0 0 0 0 0 0 0 0 0 0 0 0 0 0 0 0 0 0 0 0 0 0 0 0 0 0 0 0 0
Height
5839 5840 5842 5843 5845 5846 5847 5848 5849 5850 5851 5853 5854 5855 5856 5857 5858 5859 5860 5861 5861 5862 5863 5864 5864 5865 5865 5865 5866 5866 5866 5866 5866 5867 5867 5867 5867 5866 5866 5866 5866 5866 5865
5837 5839 5840 5841 5842 5844 5845 5846 5847 5849 5850 5851 5852 5854 5855 5856 5857 5858 5859 5860 5861 5862 5862 5863 5864 5864 5865 5865 5865 5866 5866 5866 5867 5867 5867 5867 5867 5867 5867 5867 5866 5866 5866
5834 5836 5837 5839 5840 5841 5843 5844 5845 5847 5848 5850 5851 5852 5854 5855 5856 5857 5858 5859 5860 5861 5862 5862 5863 5864 5864 5865 5865 5866 5866 5866 5867 5867 5867 5867 5867 5867 5867 5867 5867 5866 5866
5832 5833 5834 5836 5837 5839 5840 5842 5843 5845 5846 5848 5849 5851 5852 5853 5855 5856 5857 5858 5859 5860 5861 5861 5862 5863 5864 5864 5865 5865 5866 5866 5866 5867 5867 5867 5867 5867 5867 5867 5867 5866 5866
5828 5830 5831 5833 5834 5836 5837 5839 5840 5842 5844 5845 5847 5849 5850 5852 5853 5854 5855 5856 5857 5858 5859 5860 5861 5862 5863 5863 5864 5864 5865 5865 5866 5866 5866 5867 5867 5867 5866 5866 5866 5866 5866
5824 5826 5828 5829 5831 5833 5834 5836 5837 5839 5841 5842 5844 5846 5848 5849 5851 5852 5853 5854 5856 5857 5858 5859 5859 5860 5861 5862 5863 5863 5864 5865 5865 5865 5866 5866 5866 5866 5866 5866 5866 5866 5866
5819 5822 5824 5825 5827 5829 5831 5832 5834 5836 5838 5839 5841 5843 5845 5847 5848 5850 5851 5853 5854 5855 5856 5857 5858 5859 5859 5860 5861 5862 5863 5863 5864 5864 5865 5865 5865 5865 5865 5865 5865 5865 5865
5814 5817 5819 5821 5823 5825 5827 5828 5830 5832 5834 5836 5838 5840 5842 5844 5845 5847 5849 5850 5852 5853 5854 5855 5856 5857 5858 5858 5859 5860 5861 5862 5863 5863 5863 5864 5864 5864 5864 5864 5864 5864 5864
5808 5811 5813 5816 5818 5821 5822 5824 5826 5828 5830 5832 5835 5837 5838 5840 5842 5844 5846 5847 5849 5850 5851 5852 5854 5855 5856 5856 5857 5858 5859 5860 5861 5862 5862 5863 5863 5863 5863 5863 5863 5863 5863
5802 5805 5807 5810 5813 5815 5818 5819 5821 5823 5826 5828 5830 5833 5835 5837 5839 5841 5843 5844 5846 5847 5849 5850 5851 5852 5853 5854 5855 5856 5857 5858 5859 5860 5861 5861 5861 5862 5862 5862 5862 5862 5862
5795 5798 5801 5804 5806 5810 5812 5814 5816 5819 5821 5824 5826 5828 5831 5833 5835 5837 5839 5841 5843 5844 5846 5847 5848 5850 5851 5852 5853 5854 5855 5856 5857 5858 5859 5859 5860 5860 5860 5860 5860 5860 5860
5787 5791 5794 5797 5800 5803 5806 5809 5811 5813 5816 5819 5821 5824 5826 5828 5831 5833 5835 5837 5839 5840 5842 5844 5845 5847 5848 5849 5850 5852 5853 5854 5855 5856 5856 5857 5857 5858 5858 5858 5858 5858 5858
5779 5782 5786 5789 5792 5796 5799 5802 5805 5808 5810 5813 5816 5818 5821 5823 5826 5828 5831 5833 5835 5836 5838 5840 5842 5843 5845 5846 5848 5849 5850 5851 5852 5853 5854 5855 5855 5856 5856 5856 5856 5856 5856
5769 5773 5777 5781 5784 5788 5792 5795 5798 5801 5804 5807 5809 5812 5815 5818 5820 5823 5826 5828 5830 5832 5834 5836 5838 5840 5841 5843 5844 5846 5847 5848 5849 5850 5851 5852 5853 5853 5854 5854 5854 5854 5854
5759 5763 5768 5772 5776 5779 5783 5787 5790 5794 5797 5800 5803 5806 5808 5811 5814 5817 5820 5822 5825 5827 5829 5831 5833 5835 5837 5839 5841 5842 5844 5845 5846 5847 5848 5849 5850 5850 5851 5851 5851 5851 5851
5749 5753 5758 5762 5766 5770 5774 5778 5782 5785 5789 5792 5795 5798 5802 5805 5808 5811 5814 5816 5819 5822 5824 5826 5829 5831 5833 5835 5837 5838 5840 5841 5843 5844 5845 5846 5847 5847 5848 5848 5848 5849 5849
5737 5742 5747 5752 5756 5760 5764 5769 5772 5776 5780 5783 5787 5790 5794 5797 5801 5804 5807 5810 5813 5816 5818 5821 5823 5826 5828 5830 5832 5834 5836 5837 5839 5840 5841 5842 5843 5844 5845 5845 5845 5846 5846
5725 5731 5736 5741 5745 5750 5754 5758 5762 5766 5770 5774 5778 5782 5785 5789 5793 5796 5800 5803 5806 5809 5812 5815 5818 5820 5823 5825 5827 5829 5831 5833 5835 5836 5837 5839 5840 5841 5841 5842 5842 5843 5843
5713 5719 5724 5730 5734 5739 5743 5748 5752 5756 5760 5765 5769 5773 5777 5781 5785 5789 5792 5796 5799 5803 5806 5808 5811 5814 5817 5820 5822 5824 5826 5828 5830 5831 5833 5834 5836 5837 5837 5838 5839 5839 5839
5700 5706 5712 5717 5723 5728 5733 5737 5742 5746 5751 5755 5760 5764 5768 5772 5776 5780 5784 5788 5791 5795 5799 5802 5805 5808 5811 5813 5816 5818 5820 5823 5824 5826 5828 5829 5831 5832 5833 5834 5834 5835 5835
5686 5693 5699 5705 5711 5717 5722 5727 5732 5737 5742 5746 5751 5755 5759 5763 5767 5772 5776 5780 5783 5787 5791 5794 5797 5801 5804 5807 5810 5812 5814 5817 5819 5821 5823 5824 5826 5827 5828 5829 5830 5830 5831
5674 5680 5687 5694 5700 5706 5712 5717 5722 5727 5732 5736 5741 5746 5750 5754 5758 5762 5767 5771 5775 5778 5782 5786 5790 5793 5797 5800 5803 5805 5808 5811 5812 5815 5817 5818 5820 5821 5823 5824 5825 5825 5826
5662 5668 5675 5682 5689 5695 5701 5706 5712 5717 5721 5726 5731 5736 5740 5744 5749 5753 5757 5761 5765 5769 5774 5777 5781 5786 5789 5792 5796 5799 5801 5804 5806 5808 5810 5812 5814 5815 5817 5818 5819 5819 5820
5651 5657 5664 5671 5678 5684 5690 5696 5701 5707 5712 5717 5722 5726 5731 5735 5739 5744 5748 5752 5756 5760 5764 5769 5773 5777 5781 5784 5788 5791 5794 5797 5799 5802 5804 5806 5807 5809 5811 5812 5813 5813 5814
5640 5646 5653 5660 5667 5673 5679 5685 5691 5696 5702 5707 5712 5716 5721 5726 5730 5734 5738 5742 5746 5751 5755 5759 5764 5768 5772 5776 5780 5783 5786 5789 5792 5795 5797 5799 5801 5802 5804 5805 5806 5807 5807
5629 5635 5642 5649 5656 5662 5668 5674 5680 5686 5691 5696 5701 5706 5711 5716 5721 5725 5729 5733 5737 5741 5745 5750 5755 5759 5763 5767 5771 5774 5778 5781 5784 5787 5789 5792 5793 5795 5796 5797 5798 5799 5800
Wind_Speed
13 13 12 11 11 10 10 9 9 8 8 7 6 6 5 5 4 3 3 2 2 2 2 2 1 1 0 1 1 1 2 2 3 3 3 3 4 4 5 5 5 5 5
15 14 14 13 12 12 11 11 10 9 9 8 7 6 6 5 5 5 4 4 4 3 3 3 2 1 1 1 1 1 1 1 2 2 2 2 3 3 3 4 4 4 5
17 16 15 15 13 13 13 13 12 11 10 9 8 8 6 6 6 6 6 5 5 5 4 4 3 3 3 2 2 1 1 1 1 1 1 1 2 2 2 3 3 4 4
19 18 17 16 15 14 14 14 14 13 12 11 10 9 9 8 7 7 7 7 6 6 6 5 5 5 4 3 3 3 2 2 2 1 1 1 1 1 2 2 3 3 4
20 19 19 18 17 16 16 15 15 15 14 13 12 11 11 10 9 9 8 8 8 8 7 7 7 6 5 5 4 4 4 3 3 2 2 2 2 2 2 2 3 3 4
22 21 20 20 19 18 17 17 16 16 16 15 14 13 12 11 10 10 9 9 9 9 9 8 8 7 7 6 6 5 5 4 4 3 3 3 2 2 2 2 3 3 4
25 24 22 22 21 20 19 19 18 17 17 16 16 15 14 13 12 11 10 10 10 10 9 9 9 8 8 7 7 6 6 5 5 4 4 4 3 3 3 3 3 4 4
27 26 25 24 23 22 21 21 20 19 18 18 17 17 16 15 14 13 12 11 11 11 10 10 10 9 9 8 8 8 7 7 6 6 5 5 5 5 5 4 5 4 4
30 29 28 27 26 25 24 23 22 21 20 19 19 18 17 16 15 14 13 13 12 12 12 11 11 10 9 9 8 8 8 7 7 7 7 6 6 6 6 6 6 6 6
32 31 30 29 28 27 26 25 24 23 22 22 21 20 19 18 17 16 15 14 14 13 13 12 12 11 11 10 10 9 9 9 9 8 8 8 8 7 7 7 7 6 6
35 34 33 31 30 29 28 27 26 25 24 24 23 22 21 20 19 18 17 16 16 15 15 14 13 13 12 11 11 10 10 10 10 10 10 9 9 8 8 7 7 7 7
37 36 35 34 33 31 30 29 28 27 26 26 25 24 23 22 22 20 19 18 17 17 16 15 15 14 13 12 12 12 12 11 12 11 11 10 10 9 9 9 8 8 8
39 39 38 37 35 34 33 32 31 29 28 28 27 26 26 25 24 23 21 20 20 19 19 17 16 16 15 14 14 13 13 13 12 12 11 11 10 10 10 10 10 10 9
42 41 40 39 38 37 35 34 33 32 31 30 29 29 28 27 26 25 24 23 22 21 20 19 18 18 17 16 15 14 14 13 13 13 12 12 12 11 11 11 11 10 10
44 43 43 42 41 40 38 37 36 35 34 33 31 30 30 29 29 27 26 25 24 23 22 21 20 19 19 18 17 16 15 14 14 14 14 13 13 12 12 12 11 11 11
45 45 45 44 43 42 41 40 39 37 36 35 34 33 32 31 31 30 28 27 27 26 24 23 22 21 20 19 19 18 17 16 16 16 15 14 14 14 13 12 12 12 12
47 46 46 46 45 44 43 42 41 40 39 37 36 35 34 33 32 31 30 29 29 28 27 25 24 23 22 21 21 20 19 18 17 17 17 16 15 15 14 14 13 13 13
49 48 47 47 47 46 45 43 42 41 40 39 38 37 35 35 34 33 32 31 31 29 29 28 27 25 24 24 23 22 21 21 20 19 19 18 18 17 16 15 15 14 14
50 50 49 48 47 47 46 45 44 42 41 40 39 38 37 36 35 34 34 33 33 32 31 30 29 28 27 25 25 24 24 23 22 21 21 20 19 19 18 17 16 16 15
51 51 50 49 48 47 47 47 46 45 43 41 40 38 37 37 36 35 35 35 35 34 33 32 31 30 29 27 27 26 25 24 24 23 22 22 21 20 19 19 18 18 17
51 52 51 50 50 48 47 47 46 45 44 43 41 40 39 38 38 37 37 37 36 36 35 35 33 32 31 30 29 28 27 26 26 25 24 23 22 22 21 21 20 20 19
51 53 52 51 50 49 48 47 46 46 46 44 43 42 41 39 39 38 38 38 38 38 36 36 35 34 33 32 30 29 29 28 27 26 25 25 24 23 23 22 22 22 21
51 51 52 51 50 50 49 48 47 46 46 46 45 44 42 41 40 39 40 39 39 38 37 37 36 35 34 33 32 31 30 30 29 28 27 27 26 25 24 24 24 24 24
50 51 51 51 50 50 50 49 47 46 46 46 46 45 43 42 40 40 41 40 41 40 39 38 37 36 35 34 33 33 32 31 31 30 29 28 28 27 26 26 26 26 26
49 50 51 51 51 50 50 49 48 47 46 47 47 47 45 44 42 41 41 40 40 41 40 39 38 37 36 35 34 34 34 33 32 31 30 29 29 29 28 28 28 28 28
48 50 51 51 51 51 50 50 49 47 47 48 47 47 47 46 44 43 43 41 41 42 40 40 39 38 37 37 36 36 35 35 33 33 32 31 31 31 31 31 30 30 30
Wind_Direction
236 233 232 232 231 229 229 227 225 225 225 224 224 223 223 224 225 225 220 227 230 228 235 233 235 242 228 31 36 48 45 55 61 54 51 58 62 59 55 49 49 49 49
239 238 236 236 235 234 232 230 229 228 228 228 228 229 228 226 229 232 233 240 240 236 235 241 248 255 258 275 325 348 11 40 52 43 40 49 53 52 46 42 39 40 44
240 238 238 238 238 237 235 232 231 230 230 231 231 232 233 231 235 238 239 241 241 241 242 244 248 255 259 256 257 275 308 324 339 5 15 21 26 33 30 27 24 29 34
241 239 237 237 238 238 236 235 233 233 232 232 233 235 237 236 238 243 245 243 242 242 244 245 248 251 253 254 256 258 265 273 282 296 302 313 330 342 354 4 5 11 14
241 240 238 236 237 237 237 237 236 235 233 232 233 236 238 240 241 244 247 243 242 240 242 244 246 248 251 254 257 261 262 261 267 274 278 284 303 315 327 343 348 354 358
240 240 239 238 238 237 237 236 236 235 234 233 234 236 238 240 241 243 246 244 244 243 241 243 243 244 246 251 254 257 260 261 261 268 274 278 290 294 304 320 334 340 344
241 239 238 238 238 237 236 237 235 235 235 234 234 236 237 238 239 240 243 245 247 246 244 243 244 244 244 247 251 252 253 254 257 264 268 269 273 277 288 300 310 320 328
241 240 239 238 237 238 237 237 236 235 235 235 235 235 236 237 238 240 240 243 245 244 244 243 243 244 244 246 249 250 251 250 252 258 261 265 266 271 279 291 295 300 308
240 240 240 239 238 238 237 238 237 235 235 235 236 237 237 236 237 240 240 240 242 244 245 246 244 242 243 246 247 247 247 247 251 256 258 261 264 271 277 284 287 291 296
239 239 239 238 238 239 238 238 238 237 236 235 236 237 238 237 237 239 239 240 241 242 243 243 244 244 244 246 246 245 246 250 253 258 259 261 265 272 278 281 282 286 291
239 239 239 239 238 238 238 237 238 239 237 236 236 237 238 238 237 238 239 239 240 240 241 242 243 245 245 247 246 246 249 253 254 258 260 260 263 268 275 276 279 284 290
239 239 239 239 238 238 238 237 238 239 238 237 237 237 238 238 237 238 239 240 240 240 241 242 243 244 244 246 245 247 250 255 256 258 259 258 262 265 271 274 276 281 286
238 238 238 238 237 237 238 238 239 239 239 237 237 237 238 238 239 239 241 243 242 242 242 242 244 245 244 245 245 248 250 255 257 257 256 258 262 266 271 274 274 277 281
237 236 236 237 237 237 237 238 238 238 239 239 239 238 238 238 239 240 240 242 242 242 243 243 244 245 245 245 245 246 249 252 255 257 257 260 262 265 269 274 275 276 279
236 236 235 236 236 236 236 237 238 238 238 239 238 238 238 238 239 239 240 241 241 240 241 242 241 242 243 244 245 247 248 249 253 256 258 260 262 265 268 271 273 275 277
236 236 236 235 236 236 236 237 237 238 238 239 238 238 239 239 238 239 239 239 239 239 240 241 240 241 243 244 244 246 247 248 251 254 256 259 261 264 266 268 270 273 275
236 235 236 236 236 236 237 237 237 237 238 239 239 238 238 238 239 239 238 238 237 238 239 240 240 241 242 243 245 246 246 247 248 252 255 257 260 262 264 267 270 272 274
236 235 235 236 236 236 236 236 236 236 236 238 239 239 238 236 237 238 237 238 237 237 238 239 239 240 241 242 244 245 245 246 247 250 253 255 258 261 262 265 268 271 273
237 236 235 236 236 236 235 235 235 235 235 235 237 238 237 236 235 237 237 238 238 237 237 239 239 239 240 242 244 244 245 245 247 249 252 255 257 259 260 262 266 269 273
237 235 234 235 235 235 236 235 234 235 235 234 235 236 237 237 236 236 237 237 238 238 237 238 238 239 240 241 243 245 245 245 248 250 251 254 256 257 259 261 264 268 271
235 234 233 234 234 235 235 235 234 234 235 235 235 235 237 237 236 236 236 237 239 239 238 238 238 239 241 242 244 245 245 246 248 248 250 253 255 256 259 261 264 267 270
234 232 231 232 234 235 234 235 235 235 234 234 235 235 236 237 237 236 236 236 238 238 238 238 237 239 240 241 243 244 246 247 248 249 250 253 255 257 259 262 264 266 269
233 231 230 230 232 233 234 234 235 235 235 234 234 235 236 236 236 236 236 236 236 236 237 237 236 238 239 242 243 245 247 247 249 249 250 252 254 256 258 261 263 266 269
233 231 230 229 230 232 234 235 235 235 235 235 234 235 236 237 236 237 237 236 236 235 235 235 235 236 239 242 243 245 246 248 249 250 250 252 254 255 257 260 264 266 268
233 231 230 230 231 231 232 234 235 235 235 235 234 235 235 237 236 236 236 235 235 233 234 234 236 238 239 242 244 245 246 248 249 250 251 253 254 256 258 260 263 266 268
234 232 231 230 231 232 232 233 234 235 235 235 235 235 235 237 236 236 236 236 235 233 234 235 236 238 239 241 243 245 247 248 249 249 250 252 255 257 258 260 263 265 268